FW9002 Weather Reports


Display with metric or nautical units.
time (UTC)temp
F
wind
direction
speed
MPH
gust
MPH
rain 1hr
in
rain 24hr
in
rain mn
in
humidity
%
barometer
mb
20260901002234 80 87 0.0 0.0 0.00 1.47 1.47 58 1013.2
20260901001729 81 87 0.0 0.0 0.00 1.47 1.47 56 1013.3
20260901001224 81 87 0.0 0.0 0.00 1.47 1.47 54 1013.3
20260901000714 82 110 1.0 1.0 0.00 1.47 1.47 53 1013.2
20260901000211 82 164 1.0 1.0 0.00 1.47 1.47 51 1013.3
20260831235708 82 133 2.0 2.0 0.00 1.47 1.47 52 1013.2
20260831235204 82 182 2.0 2.0 0.00 1.47 1.47 53 1013.3
20260831234703 82 200 1.0 1.0 0.00 1.47 1.47 52 1013.6
20260831234158 81 178 2.0 2.0 0.00 1.47 1.47 54 1013.4
20260831233653 80 137 1.0 1.0 0.00 1.47 1.47 57 1013.5
20260831233149 81 98 1.0 1.0 0.00 1.47 1.47 58 1013.6
20260831232643 80 122 1.0 1.0 0.00 1.47 1.47 61 1013.6
20260831232140 80 145 1.0 1.0 0.00 1.47 1.47 64 1013.8
20260831231636 80 100 1.0 1.0 0.00 1.47 1.47 65 1013.5
20260831231132 79 80 1.0 1.0 0.00 1.47 1.47 66 1013.8
20260831230627 79 120 2.0 2.0 0.00 1.47 1.47 68 1013.9
20260831230122 79 145 3.0 5.0 0.00 1.47 1.47 68 1013.9
20260831225621 79 125 2.0 2.0 0.00 1.47 1.47 68 1013.8
20260831225116 78 134 1.0 2.0 0.00 1.47 1.47 69 1014.0
20260831224606 78 154 5.0 6.0 0.00 1.47 1.47 67 1014.0
20260831224101 77 121 3.0 3.0 0.00 1.47 1.47 68 1013.9
20260831223557 77 160 2.0 3.0 0.00 1.47 1.47 69 1014.3
20260831223052 77 108 3.0 3.0 0.00 1.47 1.47 71 1014.3
20260831222548 76 114 4.0 5.0 0.00 1.47 1.47 72 1014.4
20260831222049 76 107 3.0 3.0 0.00 1.47 1.47 71 1014.4
20260831221544 76 83 5.0 8.0 0.00 1.47 1.47 71 1014.3
20260831221039 76 106 3.0 5.0 0.00 1.47 1.47 72 1014.4
20260831220533 76 103 5.0 5.0 0.00 1.47 1.47 71 1014.6
20260831220029 76 122 2.0 3.0 0.00 1.47 1.47 74 1014.6
20260831215525 76 120 3.0 3.0 0.00 1.47 1.47 75 1014.8
20260831215020 75 95 2.0 2.0 0.00 1.47 1.47 78 1015.0
20260831214518 73 114 1.0 1.0 0.00 1.47 1.47 84 1014.9
20260831214013 72 108 4.0 6.0 0.00 1.47 1.47 85 1015.3
20260831213510 72 108 2.0 2.0 0.00 1.47 1.47 86 1015.4
20260831213005 72 105 3.0 5.0 0.00 1.47 1.47 88 1015.5
20260831212501 71 131 2.0 2.0 0.00 1.47 1.47 90 1015.5
20260831212000 71 135 3.0 5.0 0.00 1.47 1.47 89 1015.6
20260831211456 71 99 1.0 2.0 0.00 1.47 1.47 89 1015.9
20260831210954 70 116 1.0 2.0 0.05 1.47 1.47 90 1016.3
20260831210450 70 102 1.0 1.0 0.05 1.47 1.47 90 1015.8
20260831205946 69 119 2.0 2.0 0.07 1.46 1.46 91 1016.3
20260831205441 69 123 3.0 3.0 0.07 1.46 1.46 91 1016.6
20260831204937 69 99 2.0 3.0 0.05 1.45 1.45 91 1017.0
20260831204436 69 98 4.0 7.0 0.05 1.45 1.45 92 1016.9
20260831203935 69 104 2.0 2.0 0.00 1.44 1.44 93 1017.3
20260831203430 69 68 2.0 3.0 0.07 1.44 1.44 93 1017.3
20260831202928 69 102 2.0 2.0 0.14 1.44 1.44 93 1017.7
20260831202423 69 86 2.0 2.0 0.12 1.43 1.43 93 1017.8
20260831201918 69 100 1.0 1.0 0.12 1.42 1.42 93 1018.2
20260831201416 69 53 1.0 1.0 0.24 1.41 1.41 93 1018.6
20260831200913 69 89 1.0 2.0 0.24 1.39 1.39 93 1018.3
20260831200408 69 90 1.0 2.0 0.24 1.37 1.37 93 1018.3
20260831195907 69 111 2.0 2.0 0.19 1.35 1.35 92 1018.8
20260831195403 69 109 1.0 1.0 0.12 1.33 1.33 92 1018.8
20260831194859 68 112 1.0 2.0 0.12 1.32 1.32 92 1018.9
20260831194354 68 99 2.0 2.0 0.14 1.31 1.31 92 1019.0
20260831193853 68 114 1.0 1.0 0.07 1.30 1.30 92 1018.8
20260831193348 68 112 1.0 2.0 0.05 1.29 1.29 92 1019.0
20260831192843 68 126 1.0 1.0 0.12 1.29 1.29 92 1019.0
20260831192338 68 128 1.0 1.0 0.24 1.28 1.28 92 1018.9
20260831191834 68 129 0.0 0.0 0.54 1.27 1.27 92 1019.2
20260831191330 68 181 0.0 0.0 0.42 1.24 1.24 91 1018.9
20260831190826 68 208 1.0 1.0 0.05 1.18 1.18 92 1019.0
20260831190325 68 225 4.0 5.0 0.07 1.17 1.17 93 1019.3
20260831185825 68 31 0.0 1.0 0.24 1.17 1.17 93 1018.9
20260831185320 68 82 2.0 2.0 0.52 1.16 1.16 93 1018.4
20260831184819 68 50 3.0 3.0 0.78 1.13 1.13 93 1018.8
20260831184315 68 35 1.0 1.0 1.13 1.06 1.06 93 1019.2
20260831183810 68 304 3.0 2.0 1.72 0.99 0.99 92 1019.2
20260831183310 68 275 1.0 1.0 2.46 0.88 0.88 92 1019.1
20260831182809 69 282 3.0 5.0 1.68 0.67 0.67 90 1019.3
20260831182305 70 257 3.0 5.0 0.31 0.44 0.44 85 1019.1
20260831181759 71 277 11.0 15.0 0.00 0.39 0.39 82 1019.1
20260831181254 71 282 9.0 11.0 0.00 0.39 0.39 82 1018.5
20260831180749 71 279 5.0 7.0 0.00 0.39 0.39 82 1017.6
20260831180244 71 282 9.0 13.0 0.00 0.39 0.39 81 1017.6
20260831175743 71 286 3.0 5.0 0.00 0.39 0.39 81 1018.1
20260831175240 72 284 5.0 7.0 0.00 0.39 0.39 80 1018.2
20260831174735 72 287 10.0 16.0 0.00 0.39 0.39 78 1017.9
20260831174231 73 321 7.0 10.0 0.00 0.39 0.39 76 1018.1
20260831173729 73 341 5.0 8.0 0.00 0.39 0.39 76 1018.1
20260831173224 73 266 7.0 8.0 0.00 0.39 0.39 76 1018.1
20260831172719 74 306 5.0 7.0 0.00 0.39 0.39 75 1017.8
20260831172214 74 276 4.0 5.0 0.00 0.39 0.39 75 1017.7
20260831171708 75 51 8.0 13.0 0.00 0.39 0.39 73 1017.9
20260831171206 75 310 4.0 5.0 0.00 0.39 0.39 74 1017.8
20260831170702 77 298 5.0 9.0 0.00 0.39 0.39 69 1017.7
20260831170158 78 303 3.0 3.0 0.00 0.39 0.39 64 1017.5
20260831165654 78 305 2.0 3.0 0.00 0.39 0.39 66 1017.6
20260831165150 77 316 2.0 3.0 0.00 0.39 0.39 69 1017.4
20260831164646 77 300 7.0 8.0 0.00 0.39 0.39 70 1017.1
20260831164142 77 285 5.0 6.0 0.00 0.39 0.39 70 1017.4
20260831163637 77 293 4.0 5.0 0.00 0.39 0.39 70 1017.0
20260831163133 77 288 3.0 3.0 0.00 0.39 0.39 70 1017.0
20260831162632 78 299 4.0 7.0 0.00 0.39 0.39 69 1016.9
20260831162130 80 293 5.0 7.0 0.00 0.39 0.39 67 1016.3
20260831161626 80 330 4.0 6.0 0.00 0.39 0.39 62 1016.3
20260831161122 81 253 2.0 2.0 0.00 0.39 0.39 61 1016.4
20260831160621 82 227 2.0 2.0 0.00 0.39 0.39 59 1016.2
20260831160117 81 106 1.0 2.0 0.00 0.39 0.39 56 1015.9
20260831155611 80 152 2.0 2.0 0.00 0.39 0.39 61 1016.0
20260831155106 80 156 2.0 3.0 0.00 0.39 0.39 61 1015.9
20260831154602 80 129 1.0 1.0 0.00 0.39 0.39 65 1015.9
20260831154102 80 150 2.0 2.0 0.00 0.39 0.39 66 1015.7
20260831153601 78 182 1.0 1.0 0.00 0.39 0.39 68 1015.9
20260831153058 78 197 5.0 6.0 0.00 0.39 0.39 69 1016.0
20260831152553 78 220 5.0 6.0 0.00 0.39 0.39 69 1016.1
20260831152049 77 228 5.0 6.0 0.00 0.39 0.39 72 1016.2
20260831151548 77 131 3.0 3.0 0.00 0.39 0.39 75 1016.1
20260831151043 76 151 2.0 3.0 0.00 0.39 0.39 76 1016.1
20260831150538 76 188 3.0 5.0 0.00 0.39 0.39 76 1016.1
20260831150034 76 153 1.0 2.0 0.00 0.39 0.39 77 1015.9
20260831145528 75 176 2.0 3.0 0.00 0.39 0.39 78 1015.7
20260831145025 75 181 3.0 5.0 0.00 0.39 0.39 78 1015.5
20260831144520 75 144 2.0 2.0 0.00 0.39 0.39 79 1015.6
20260831144015 74 143 3.0 5.0 0.00 0.39 0.39 80 1015.3
20260831143509 74 202 2.0 3.0 0.00 0.39 0.39 83 1015.6
20260831143005 73 134 2.0 2.0 0.00 0.39 0.39 85 1015.3
20260831142502 72 177 0.0 0.0 0.00 0.39 0.39 87 1015.2
20260831141956 72 147 0.0 0.0 0.00 0.39 0.39 88 1015.4
20260831141449 72 162 3.0 5.0 0.00 0.39 0.39 87 1015.3
20260831140944 72 141 3.0 3.0 0.00 0.39 0.39 86 1015.2
20260831140439 71 126 1.0 2.0 0.00 0.39 0.39 88 1015.2
20260831135938 71 113 1.0 1.0 0.00 0.39 0.39 89 1015.5
20260831135437 71 135 2.0 3.0 0.00 0.39 0.39 89 1015.3
20260831134932 71 100 2.0 2.0 0.00 0.39 0.39 89 1015.2
20260831134429 71 85 1.0 1.0 0.00 0.39 0.39 89 1015.2
20260831133928 70 86 2.0 2.0 0.00 0.39 0.39 89 1015.0
20260831133423 70 90 1.0 1.0 0.00 0.39 0.39 90 1015.3
20260831132918 70 158 1.0 1.0 0.00 0.39 0.39 91 1015.4
20260831132414 70 200 2.0 2.0 0.00 0.39 0.39 91 1015.4
20260831131913 70 112 0.0 0.0 0.00 0.39 0.39 90 1015.2
20260831131408 69 112 1.0 0.0 0.00 0.39 0.39 90 1015.3
20260831130904 69 112 1.0 1.0 0.00 0.39 0.39 90 1015.3
20260831130359 69 57 0.0 0.0 0.00 0.39 0.39 89 1015.2
20260831125858 69 3 5.0 6.0 0.07 0.39 0.39 89 1015.2
20260831125353 69 15 1.0 1.0 0.07 0.39 0.39 91 1015.6
20260831124848 69 356 4.0 5.0 0.05 0.38 0.38 92 1015.8
20260831124344 68 9 1.0 1.0 0.17 0.38 0.38 92 1016.0
20260831123839 68 265 3.0 2.0 0.66 0.37 0.37 91 1016.2
20260831123338 69 7 4.0 7.0 1.56 0.35 0.35 90 1015.9
20260831122833 69 12 6.0 10.0 1.13 0.26 0.26 89 1016.1
20260831122329 70 2 5.0 7.0 0.17 0.10 0.10 88 1016.2
20260831121828 70 306 4.0 6.0 0.07 0.07 0.07 87 1016.3
20260831121324 70 295 4.0 6.0 0.07 0.07 0.07 87 1015.8
20260831120820 70 294 4.0 6.0 0.00 0.06 0.06 87 1016.3
20260831120314 70 293 5.0 6.0 0.00 0.06 0.06 87 1015.8
20260831115809 71 283 3.0 5.0 0.00 0.06 0.06 87 1015.5
20260831115306 71 295 1.0 2.0 0.00 0.06 0.06 87 1015.9
20260831114805 71 16 5.0 7.0 0.19 0.06 0.06 85 1015.7
20260831114304 71 289 7.0 9.0 0.35 0.06 0.06 84 1015.6
20260831113800 74 303 3.0 3.0 0.17 0.03 0.03 79 1015.5
20260831113259 77 265 4.0 7.0 0.00 0.00 0.00 69 1015.2
20260831112754 78 284 5.0 8.0 0.00 0.00 0.00 62 1015.0
20260831112249 78 245 2.0 2.0 0.00 0.00 0.00 61 1014.6
20260831111744 79 265 3.0 3.0 0.00 0.00 0.00 61 1014.3
20260831111241 83 291 10.0 14.0 0.00 0.00 0.00 54 1014.2
20260831110737 82 135 1.0 1.0 0.00 0.00 0.00 48 1013.6
20260831110231 82 134 1.0 1.0 0.00 0.00 0.00 48 1013.3
20260831105730 82 128 0.0 0.0 0.00 0.00 0.00 49 1013.4
20260831105226 82 128 0.0 0.0 0.00 0.00 0.00 48 1013.2
20260831104720 82 128 0.0 0.0 0.00 0.00 0.00 48 1012.8
20260831104218 82 128 0.0 0.0 0.00 0.00 0.00 48 1012.8
20260831103717 82 126 0.0 0.0 0.00 0.00 0.00 48 1012.9
20260831103213 82 121 0.0 0.0 0.00 0.00 0.00 49 1012.7
20260831102712 82 82 0.0 0.0 0.00 0.00 0.00 50 1012.8
20260831102207 82 82 1.0 1.0 0.00 0.00 0.00 50 1012.9
20260831101703 82 82 0.0 0.0 0.00 0.00 0.00 52 1012.7
20260831101158 82 82 1.0 1.0 0.00 0.00 0.00 52 1013.0
20260831100654 81 81 0.0 0.0 0.00 0.00 0.00 52 1013.0
20260831100150 81 81 1.0 1.0 0.00 0.00 0.00 53 1012.9
20260831095648 82 81 1.0 1.0 0.00 0.00 0.00 53 1012.7
20260831095143 82 83 0.0 1.0 0.00 0.00 0.00 51 1012.6
20260831094638 82 61 0.0 0.0 0.00 0.00 0.00 51 1012.6
20260831094135 82 61 0.0 0.0 0.00 0.00 0.00 51 1012.7
20260831093630 82 61 0.0 0.0 0.00 0.00 0.00 51 1012.6
20260831093126 82 61 0.0 0.0 0.00 0.00 0.00 50 1012.8
20260831092622 82 47 0.0 0.0 0.00 0.00 0.00 50 1012.5
20260831092117 82 47 0.0 0.0 0.00 0.00 0.00 50 1012.4
20260831091616 82 46 0.0 0.0 0.00 0.00 0.00 51 1012.5
20260831091112 82 46 0.0 0.0 0.00 0.00 0.00 51 1012.5
20260831090608 82 46 0.0 0.0 0.00 0.00 0.00 50 1012.5
20260831090104 82 46 0.0 0.0 0.00 0.00 0.00 50 1012.8
20260831085559 82 327 0.0 0.0 0.00 0.00 0.00 50 1012.7
20260831085054 82 327 0.0 0.0 0.00 0.00 0.00 50 1012.7
20260831084550 82 327 0.0 0.0 0.00 0.00 0.00 50 1012.5
20260831084046 82 327 0.0 0.0 0.00 0.00 0.00 51 1012.7
20260831083542 82 326 0.0 0.0 0.00 0.00 0.00 50 1012.5
20260831083036 83 327 0.0 0.0 0.00 0.00 0.00 49 1012.7
20260831082530 84 327 0.0 0.0 0.00 0.00 0.00 48 1012.5
20260831082025 84 327 0.0 0.0 0.00 0.00 0.00 48 1012.7
20260831081521 84 327 0.0 0.0 0.00 0.00 0.00 47 1012.8
20260831081016 84 327 0.0 0.0 0.00 0.00 0.00 47 1012.9
20260831080510 84 327 0.0 0.0 0.00 0.00 0.00 46 1012.7
20260831080006 84 327 0.0 0.0 0.00 0.00 0.00 46 1012.9
20260831075501 84 326 0.0 0.0 0.00 0.00 0.00 47 1012.8
20260831074957 84 326 0.0 0.0 0.00 0.00 0.00 47 1013.0
20260831074456 84 326 0.0 0.0 0.00 0.00 0.00 46 1012.9
20260831073951 85 326 0.0 0.0 0.00 0.00 0.00 46 1012.9
20260831073450 85 326 0.0 0.0 0.00 0.00 0.00 45 1013.0
20260831072949 85 254 0.0 0.0 0.00 0.00 0.00 45 1012.8
20260831072446 86 254 0.0 0.0 0.00 0.00 0.00 44 1013.0
20260831071942 86 254 0.0 0.0 0.00 0.00 0.00 44 1013.1
20260831071441 86 253 0.0 0.0 0.00 0.00 0.00 44 1013.0
20260831070936 86 251 0.0 0.0 0.00 0.00 0.00 43 1013.0
20260831070435 86 236 1.0 1.0 0.00 0.00 0.00 43 1013.2
20260831065935 87 229 1.0 1.0 0.00 0.00 0.00 43 1013.2
20260831065433 87 254 0.0 0.0 0.00 0.00 0.00 44 1013.0
20260831064928 87 281 1.0 1.0 0.00 0.00 0.00 43 1013.2
20260831064423 87 291 0.0 0.0 0.00 0.00 0.00 43 1013.2
20260831063919 87 291 1.0 0.0 0.00 0.00 0.00 43 1013.0
20260831063414 87 291 0.0 0.0 0.00 0.00 0.00 44 1013.1
20260831062908 87 291 0.0 0.0 0.00 0.00 0.00 43 1013.1
20260831062403 87 292 0.0 0.0 0.00 0.00 0.00 43 1013.0
20260831061902 87 292 0.0 0.0 0.00 0.00 0.00 42 1013.3
20260831061401 87 289 0.0 0.0 0.00 0.00 0.00 42 1013.2
20260831060857 87 288 0.0 0.0 0.00 0.00 0.00 42 1013.3
20260831060352 87 288 0.0 1.0 0.00 0.00 0.00 42 1013.1
20260831055851 87 282 1.0 1.0 0.00 0.00 0.00 42 1013.4
20260831055346 87 282 1.0 1.0 0.00 0.00 0.00 42 1013.1
20260831054842 87 283 0.0 0.0 0.00 0.00 0.00 41 1013.2
20260831054337 87 281 1.0 2.0 0.00 0.00 0.00 41 1013.1
20260831053836 87 235 0.0 0.0 0.00 0.00 0.00 41 1013.0
20260831053334 88 267 1.0 1.0 0.00 0.00 0.00 40 1013.2
20260831052829 88 290 1.0 1.0 0.00 0.00 0.00 40 1013.1
20260831052329 88 285 0.0 0.0 0.00 0.00 0.00 40 1012.9
20260831051827 88 271 2.0 2.0 0.00 0.00 0.00 40 1012.8
20260831051325 88 282 2.0 2.0 0.00 0.00 0.00 40 1012.9
20260831050821 88 297 1.0 2.0 0.00 0.00 0.00 40 1012.7
20260831050319 88 10 1.0 1.0 0.00 0.00 0.00 40 1012.8
20260831045814 88 345 1.0 1.0 0.00 0.00 0.00 40 1012.7
20260831045308 88 291 1.0 2.0 0.00 0.00 0.00 39 1012.8
20260831044803 89 318 0.0 1.0 0.00 0.00 0.00 39 1012.7
20260831044258 89 301 2.0 2.0 0.00 0.00 0.00 39 1012.7
20260831043754 89 289 3.0 5.0 0.00 0.00 0.00 39 1012.8
20260831043254 89 345 1.0 2.0 0.00 0.00 0.00 39 1012.7
20260831042749 89 351 3.0 5.0 0.00 0.00 0.00 39 1012.7
20260831042243 89 231 1.0 2.0 0.00 0.00 0.00 39 1012.9
20260831041739 89 306 2.0 3.0 0.00 0.00 0.00 39 1012.8
20260831041238 89 292 4.0 6.0 0.00 0.00 0.00 39 1012.7
20260831040733 89 299 1.0 3.0 0.00 0.00 0.00 39 1012.5
20260831040232 89 18 1.0 1.0 0.00 0.00 0.00 38 1012.6
20260831035731 89 4 3.0 6.0 0.00 0.00 0.00 38 1012.2
20260831035230 89 322 1.0 1.0 0.00 0.00 0.00 38 1012.2
20260831034729 89 275 1.0 2.0 0.00 0.00 0.00 38 1012.4
20260831034225 89 359 4.0 6.0 0.00 0.00 0.00 38 1012.4
20260831033720 89 286 3.0 6.0 0.00 0.00 0.00 37 1011.9
20260831033220 90 302 4.0 6.0 0.00 0.00 0.00 37 1012.2
20260831032716 90 330 3.0 3.0 0.00 0.00 0.00 37 1012.1
20260831032211 90 285 4.0 6.0 0.00 0.00 0.00 37 1011.9
20260831031710 90 317 2.0 2.0 0.00 0.00 0.00 37 1011.7
20260831031205 91 279 1.0 2.0 0.00 0.00 0.00 37 1011.8
20260831030704 91 303 4.0 6.0 0.00 0.00 0.00 37 1011.6
20260831030203 91 323 3.0 3.0 0.00 0.00 0.00 36 1011.5
20260831025701 92 311 6.0 7.0 0.00 0.00 0.00 35 1011.3
20260831025156 93 13 6.0 7.0 0.00 0.00 0.00 35 1011.3
20260831024653 94 305 4.0 6.0 0.00 0.00 0.00 34 1010.7
20260831024151 94 20 3.0 5.0 0.00 0.00 0.00 33 1010.7
20260831023650 94 307 3.0 5.0 0.00 0.00 0.00 33 1010.5
20260831023149 95 283 2.0 2.0 0.00 0.00 0.00 32 1010.3
20260831022645 95 296 2.0 1.0 0.00 0.00 0.00 32 1010.1
20260831022140 95 311 2.0 5.0 0.00 0.00 0.00 31 1010.3
20260831021639 95 262 2.0 2.0 0.00 0.00 0.00 31 1010.1
20260831021134 95 282 1.0 2.0 0.00 0.00 0.00 31 1010.2
20260831020630 95 283 1.0 2.0 0.00 0.00 0.00 31 1010.1
20260831020125 95 303 2.0 2.0 0.00 0.00 0.00 31 1010.1
20260831015621 95 283 1.0 1.0 0.00 0.00 0.00 30 1009.9
20260831015120 95 318 1.0 2.0 0.00 0.00 0.00 30 1010.0
20260831014615 95 299 3.0 3.0 0.00 0.00 0.00 30 1010.0
20260831014110 95 289 3.0 2.0 0.00 0.00 0.00 29 1009.7
20260831013607 96 289 2.0 3.0 0.00 0.00 0.00 29 1009.8
20260831013106 96 311 3.0 5.0 0.00 0.00 0.00 29 1009.9
20260831012606 96 300 2.0 3.0 0.00 0.00 0.00 29 1009.9
20260831012101 96 311 2.0 3.0 0.00 0.00 0.00 29 1009.8
20260831011600 96 304 2.0 2.0 0.00 0.00 0.00 29 1009.7
20260831011056 96 308 1.0 1.0 0.00 0.00 0.00 29 1009.8
20260831010551 96 259 1.0 2.0 0.00 0.00 0.00 29 1009.8
20260831010048 96 304 2.0 2.0 0.00 0.00 0.00 29 1009.8
20260831005542 97 309 1.0 2.0 0.00 0.00 0.00 29 1009.6
20260831005042 97 300 0.0 0.0 0.00 0.00 0.00 29 1009.7
20260831004538 98 318 3.0 5.0 0.00 0.00 0.00 28 1009.8
20260831004033 98 299 4.0 5.0 0.00 0.00 0.00 28 1009.5
20260831003530 99 302 5.0 7.0 0.00 0.00 0.00 27 1009.7
20260831003025 100 285 1.0 1.0 0.00 0.00 0.00 27 1009.8